アトラス彗星

P/2023 M4 ( ATLAS )

English version
Home page
Updated on December 1, 2023

---------------------------------------------------------------------

・ プロフィール

発見日 2023年6月21日
発見光度 16.8等
発見者 Asteroid Terrestrial-Impact Last Alert System (ATLAS) search program

・ 写真集

・ 軌道要素

Epoch 2023 Sept. 13.0 TT = JDT 2460200.5                                        
T 2022 Apr. 15.07458 TT                                 Rudenko                 
q   3.9295680            (2000.0)            P               Q                  
n   0.07741380     Peri.  320.68866     -0.22023095     +0.96822865             
a   5.4524346      Node   296.29608     -0.85835744     -0.25004837             
e   0.2793003      Incl.    7.59259     -0.46337979     +0.00301473             
P  12.7                                                                         
>From 450 observations 2021 Mar. 17-2023 July 21, mean residual 0".3.            

・ 光度変化

        H = 15.5  G = 0.15                         [   ,420]  (              〜2023年 6月 9日)
        m1 = -69.7 + 5 logΔ + 140 log r(t - 480)  [420,   ]  (2023年 6月 9日〜              )

---------------------------------------------------------------------

軌道要素はM.P.E.C. 2023-O51に掲載されたものです。
光度グラフはComet for Windowsで作成したものです。

---------------------------------------------------------------------

Copyright(C) Seiichi Yoshida (comet@aerith.net). All rights reserved.